This is the latest recevied weather packets stored in our database for station/object DPX206-15. If no packets are shown the sender has not sent any weather packets the latest 10 day(s).
| Time | Temp. | Humidity | Pressure | Rain* | Wind** | Luminosity | Snow |
|---|---|---|---|---|---|---|---|
| 1777585868 | 6.11° C | 69% | 1031.1 hPa | 0 mm | - | 0 W/m² | - |
| 1777585118 | 6.67° C | 68% | 1031.3 hPa | 0 mm | - | 0 W/m² | - |
| 1777584367 | 6.67° C | 68% | 1031.2 hPa | 0 mm | - | 0 W/m² | - |
| 1777583617 | 6.67° C | 67% | 1030.8 hPa | 0 mm | - | 0 W/m² | - |
| 1777582868 | 7.22° C | 65% | 1031.2 hPa | 0 mm | - | 0 W/m² | - |
| 1777582117 | 7.22° C | 64% | 1031 hPa | 0 mm | - | 0 W/m² | - |
| 1777581366 | 7.78° C | 64% | 1030.9 hPa | 0 mm | - | 0 W/m² | - |
| 1777580616 | 7.78° C | 63% | 1031.1 hPa | 0 mm | - | 0 W/m² | - |
| 1777579866 | 8.33° C | 62% | 1031.1 hPa | 0 mm | - | 0 W/m² | - |
| 1777579116 | 8.33° C | 60% | 1031.3 hPa | 0 mm | - | 0 W/m² | - |
| 1777578366 | 8.89° C | 59% | 1031.1 hPa | 0 mm | - | 0 W/m² | - |
| 1777577615 | 9.44° C | 58% | 1031.1 hPa | 0 mm | - | 0 W/m² | - |
| 1777576865 | 9.44° C | 57% | 1030.9 hPa | 0 mm | - | 0 W/m² | - |
| 1777576115 | 10° C | 55% | 1030.7 hPa | 0 mm | - | 0 W/m² | - |
| 1777575365 | 10.56° C | 53% | 1030.4 hPa | 0 mm | - | 0 W/m² | - |
| 1777574615 | 11.11° C | 51% | 1030.9 hPa | 0 mm | - | 0 W/m² | - |
| 1777573865 | 12.22° C | 48% | 1030.6 hPa | 0 mm | - | 3 W/m² | - |
| 1777573114 | 13.33° C | 46% | 1030.5 hPa | 0 mm | - | 8 W/m² | - |
| 1777572364 | 13.33° C | 45% | 1030.6 hPa | 0 mm | - | 14 W/m² | - |
| 1777571614 | 13.89° C | 44% | 1030.6 hPa | 0 mm | - | 19 W/m² | - |
| 1777570863 | 13.89° C | 44% | 1030.5 hPa | 0 mm | - | 28 W/m² | - |
| 1777570113 | 13.89° C | 44% | 1030.7 hPa | 0 mm | - | 34 W/m² | - |
| 1777569362 | 14.44° C | 44% | 1030.6 hPa | 0 mm | - | 44 W/m² | - |
| 1777568612 | 14.44° C | 44% | 1030.9 hPa | 0 mm | - | 74 W/m² | - |
| 1777567862 | 14.44° C | 43% | 1030.9 hPa | 0 mm | - | 55 W/m² | - |
* Rain latest hour (hover to see other rain measurements)
** Current wind speed in m/s (hover to see current wind gust speed)